Weather History for KHKY - September, 2011

Change the Weather History Date:

Sunday, September 11, 2011

  Actual Average Record
Temperature  
Mean Temperature 71 °F -  
Max Temperature 82 °F 81 °F 93 °F (1962)
Min Temperature 60 °F 60 °F 45 °F (1949)
Cooling Degree Days 6    
Growing Degree Days 21 (Base 50)    
Moisture  
Dew Point 57 °F    
Average Humidity 64    
Maximum Humidity 86    
Minimum Humidity 41    
Precipitation  
Precipitation 0.00 in - - ()
Sea Level Pressure  
Sea Level Pressure 30.03 in    
Wind  
Wind Speed 3 mph (NW)    
Max Wind Speed 5 mph    
Max Gust Speed -    
Visibility 10 miles    
Events      
Averages and records for this station are not official NWS values.
T = Trace of Precipitation, MM = Missing Value Source: NWS Daily Summary

Daily Weather History Graph

Daily Weather History Graph

Search for Another Location

Airport or City:

Trip Planner

Search our weather history database for the weather conditions in past years. The results will help you decide how hot, cold, wet, or windy it might be!

Date:

Astronomy

Sep. 11, 2011 Rise Set
Actual Time 7:04 AM EDT 7:38 PM EDT
Civil Twilight 6:39 AM EDT 8:04 PM EDT
Nautical Twilight 6:08 AM EDT 8:34 PM EDT
Astronomical Twilight 5:37 AM EDT 9:05 PM EDT
Moon 7:01 PM EDT (9/11) 6:22 AM EDT (9/11)
Length of Visible Light 13h 25m
Length of Day
12h 34m
Full, 100% of the Moon is Illuminated
Sep 11
Full
Sep 12
Full
Sep 20
Last Quarter
Sep 27
New
Oct 3
First Quarter

Hourly Weather History & Observations

Time (EDT) Temp. Heat Index Dew Point Humidity Pressure Visibility Wind Dir Wind Speed Gust Speed Precip Events Conditions
12:53 AM 66.9 °F - 55.9 °F 68% 30.01 in 10.0 mi NNW 3.5 mph - N/A   Clear
1:53 AM 63.0 °F - 57.0 °F 81% 30.02 in 10.0 mi WNW 4.6 mph - N/A   Clear
2:53 AM 62.1 °F - 55.9 °F 80% 30.00 in 10.0 mi Calm Calm - N/A   Clear
3:53 AM 62.1 °F - 55.9 °F 80% 30.00 in 10.0 mi Calm Calm - N/A   Clear
4:53 AM 60.8 °F - 55.4 °F 82% 30.06 in 10.0 mi WNW 4.6 mph - N/A   Clear
5:53 AM 61.0 °F - 55.9 °F 83% 30.01 in 10.0 mi Calm Calm - N/A   Clear
6:53 AM 60.1 °F - 55.9 °F 86% 30.04 in 10.0 mi NW 3.5 mph - N/A   Clear
7:53 AM 60.1 °F - 55.9 °F 86% 30.05 in 10.0 mi WNW 4.6 mph - N/A   Clear
8:53 AM 64.9 °F - 57.9 °F 78% 30.06 in 10.0 mi NW 4.6 mph - N/A   Clear
9:53 AM 69.1 °F - 59.0 °F 70% 30.07 in 10.0 mi WNW 3.5 mph - N/A   Clear
10:53 AM 75.0 °F - 60.1 °F 60% 30.07 in 10.0 mi Calm Calm - N/A   Clear
11:53 AM 78.1 °F - 59.0 °F 52% 30.06 in 10.0 mi East 3.5 mph - N/A   Clear
12:53 PM 80.1 °F 80.2 °F 55.9 °F 43% 30.04 in 10.0 mi Calm Calm - N/A   Clear
1:53 PM 82.0 °F 81.6 °F 55.9 °F 41% 30.03 in 10.0 mi Variable 3.5 mph - N/A   Partly Cloudy
2:53 PM 82.0 °F 81.6 °F 55.9 °F 41% 30.01 in 10.0 mi Calm Calm - N/A   Partly Cloudy
3:53 PM 81.0 °F 80.8 °F 55.9 °F 42% 30.00 in 10.0 mi East 3.5 mph - N/A   Mostly Cloudy
4:53 PM 82.9 °F 82.6 °F 57.9 °F 42% 29.99 in 10.0 mi Variable 3.5 mph - N/A   Clear
5:53 PM 81.0 °F 80.8 °F 55.9 °F 42% 29.99 in 10.0 mi SSW 3.5 mph - N/A   Clear
6:53 PM 77.0 °F - 59.0 °F 54% 29.99 in 10.0 mi Calm Calm - N/A   Clear
7:53 PM 75.0 °F - 55.9 °F 51% 29.99 in 10.0 mi West 3.5 mph - N/A   Clear
8:53 PM 73.0 °F - 59.0 °F 61% 30.01 in 10.0 mi Calm Calm - N/A   Clear
9:53 PM 72.0 °F - 57.9 °F 61% 30.03 in 10.0 mi Calm Calm - N/A   Clear
10:53 PM 69.1 °F - 59.0 °F 70% 30.04 in 10.0 mi NNW 3.5 mph - N/A   Clear
11:53 PM 66.9 °F - 59.0 °F 76% 30.04 in 10.0 mi NW 4.6 mph - N/A   Clear